Date String (YYYY-MM-DD hh:mm:ss) UTC,Instrument flags,Ambient pressure (hPa),Sample flow (lpm),Bypass flow (lpm),Sample temperature (°C),Ambient temperature (°C),ASC tube jacket temperature (°C),LED temperature (°C),Box temperature (°C),Sample RH (%),Span deviation,Mass concentration (μg/m³),Mass concentration (μg/m³),Mass concentration (μg/m³)
DateTimeUTC,F1_M11,P_M11,Q1_M11,Q2_M11,T1_M11,T2_M11,T3_M11,T4_M11,T5_M11,U1_M11,ZSPAN_M11,X2_M11,X0_M11,X1_M11
2023-05-23 14:00:00,,0830.8,5.01,0.00,29.0,27.4,00.0,37.3,30.7,21.3,0003.4,0024.62,0036.71,0023.33
2023-05-23 14:01:00,,0830.8,5.01,0.00,29.0,27.5,00.0,37.3,30.7,21.6,0003.5,0024.56,0036.63,0023.30
2023-05-23 14:02:00,,0830.8,5.00,0.00,29.0,27.5,00.0,37.3,30.7,21.6,0003.6,0024.52,0036.42,0023.25
2023-05-23 14:03:00,,0830.8,4.99,0.00,29.1,27.5,00.0,37.3,30.7,21.8,0003.6,0024.48,0035.90,0023.21
2023-05-23 14:04:00,,0830.8,4.99,0.00,29.1,27.5,00.0,37.3,30.7,22.0,0003.6,0024.45,0036.05,0023.22
2023-05-23 14:05:00,,0830.8,5.00,0.00,29.1,27.5,00.0,37.4,30.7,21.8,0003.6,0024.47,0035.63,0023.23
2023-05-23 14:06:00,,0830.9,4.99,0.00,29.1,27.5,00.0,37.4,30.7,21.5,0003.5,0024.53,0036.01,0023.28
2023-05-23 14:07:00,,0830.9,5.00,0.00,29.1,27.5,00.0,37.4,30.7,21.7,0003.5,0024.52,0037.18,0023.26
2023-05-23 14:08:00,,0830.8,5.00,0.00,29.1,27.5,00.0,37.4,30.7,21.7,0003.4,0024.56,0036.56,0023.28
2023-05-23 14:09:00,,0830.8,5.00,0.00,29.1,27.6,00.0,37.4,30.7,21.6,0003.5,0024.61,0036.74,0023.26
2023-05-23 14:10:00,,0830.8,5.00,0.00,29.1,27.6,00.0,37.4,30.7,21.7,0003.6,0024.58,0036.34,0023.21
2023-05-23 14:11:00,,0830.8,5.01,0.00,29.1,27.6,00.0,37.4,30.7,21.6,0003.6,0024.57,0036.35,0023.17
2023-05-23 14:12:00,,0830.8,5.00,0.00,29.1,27.5,00.0,37.4,30.7,21.6,0003.6,0024.57,0036.34,0023.14
2023-05-23 14:13:00,,0830.9,4.99,0.00,29.1,27.5,00.0,37.4,30.7,22.4,0003.6,0024.48,0036.77,0023.08
2023-05-23 14:14:00,,0830.9,4.99,0.00,29.1,27.5,00.0,37.4,30.7,22.4,0003.5,0024.39,0036.99,0022.98
2023-05-23 14:15:00,,0830.9,4.99,0.00,29.1,27.5,00.0,37.4,30.7,23.4,0003.5,0024.32,0037.04,0022.89
2023-05-23 14:16:00,,0830.9,5.01,0.00,29.1,27.4,00.0,37.4,30.7,24.0,0003.6,0024.14,0036.65,0022.74
2023-05-23 14:17:00,,0830.9,5.01,0.00,29.1,27.4,00.0,37.4,30.7,23.7,0003.6,0023.96,0037.26,0022.57
2023-05-23 14:18:00,,0830.9,5.00,0.00,29.1,27.4,00.0,37.4,30.7,23.6,0003.7,0023.82,0035.40,0022.44
2023-05-23 14:19:00,,0830.9,4.99,0.00,29.1,27.4,00.0,37.4,30.7,23.3,0003.7,0023.73,0035.11,0022.36
2023-05-23 14:20:00,,0831.0,5.00,0.00,29.1,27.4,00.0,37.4,30.7,22.8,0003.8,0023.65,0035.68,0022.29
2023-05-23 14:21:00,,0831.0,4.99,0.00,29.1,27.4,00.0,37.4,30.7,22.2,0003.8,0023.58,0036.17,0022.25
2023-05-23 14:22:00,,0831.1,5.00,0.00,29.1,27.4,00.0,37.4,30.7,22.3,0003.8,0023.51,0036.89,0022.18
2023-05-23 14:23:00,,0831.1,5.01,0.00,29.1,27.4,00.0,37.4,30.7,22.5,0003.8,0023.46,0037.02,0022.12
2023-05-23 14:24:00,,0831.1,5.00,0.00,29.1,27.4,00.0,37.4,30.7,22.8,0003.7,0023.47,0036.51,0022.09
2023-05-23 14:25:00,,0831.1,4.99,0.00,29.1,27.4,00.0,37.4,30.7,22.6,0003.8,0023.51,0036.48,0022.13
2023-05-23 14:26:00,,0831.1,5.00,0.00,29.1,27.4,00.0,37.4,30.7,22.1,0003.6,0023.58,0036.49,0022.17
2023-05-23 14:27:00,,0831.1,4.99,0.00,29.1,27.4,00.0,37.4,30.7,22.2,0003.6,0023.69,0036.71,0022.23
2023-05-23 14:28:00,,0831.1,5.00,0.00,29.1,27.5,00.0,37.4,30.7,22.1,0003.7,0023.71,0036.26,0022.26
2023-05-23 14:29:00,,0831.1,5.00,0.00,29.1,27.5,00.0,37.4,30.7,21.9,0003.6,0023.70,0036.77,0022.29
2023-05-23 14:30:00,,0831.1,5.00,0.00,29.1,27.5,00.0,37.4,30.7,21.9,0003.6,0023.66,0037.14,0022.25
2023-05-23 14:31:00,,0831.1,5.00,0.00,29.1,27.5,00.0,37.4,30.7,21.5,0003.6,0023.62,0036.78,0022.21
2023-05-23 14:32:00,,0831.1,5.01,0.00,29.1,27.5,00.0,37.4,30.7,21.2,0003.6,0023.53,0036.58,0022.13
2023-05-23 14:33:00,,0831.1,5.00,0.00,29.1,27.6,00.0,37.4,30.7,21.6,0003.7,0023.54,0036.45,0022.12
2023-05-23 14:34:00,,0831.1,5.00,0.00,29.1,27.6,00.0,37.4,30.8,22.8,0003.7,0023.48,0036.13,0022.09
2023-05-23 14:35:00,,0831.2,5.00,0.00,29.1,27.6,00.0,37.5,30.8,23.1,0003.7,0023.43,0036.27,0022.06
2023-05-23 14:36:00,,0831.2,5.01,0.00,29.2,27.6,00.0,37.5,30.8,22.7,0003.7,0023.37,0036.56,0022.00
2023-05-23 14:37:00,,0831.2,4.99,0.00,29.2,27.6,00.0,37.5,30.8,22.4,0003.7,0023.27,0036.89,0021.93
2023-05-23 14:38:00,,0831.2,5.00,0.00,29.2,27.6,00.0,37.5,30.8,22.5,0003.7,0023.17,0036.59,0021.88
2023-05-23 14:39:00,,0831.2,5.01,0.00,29.2,27.6,00.0,37.5,30.8,21.2,0003.7,0023.13,0036.28,0021.84
2023-05-23 14:40:00,,0831.2,5.00,0.00,29.2,27.6,00.0,37.5,30.8,20.8,0003.7,0023.05,0035.72,0021.74
2023-05-23 14:41:00,,0831.2,5.00,0.00,29.2,27.6,00.0,37.5,30.8,21.2,0003.7,0022.95,0035.69,0021.66
2023-05-23 14:42:00,,0831.2,5.01,0.00,29.2,27.6,00.0,37.5,30.8,21.6,0003.7,0022.88,0035.41,0021.61
2023-05-23 14:43:00,,0831.2,5.00,0.00,29.2,27.6,00.0,37.5,30.8,22.1,0003.8,0022.82,0034.68,0021.58
2023-05-23 14:44:00,,0831.3,5.00,0.00,29.2,27.6,00.0,37.5,30.8,22.2,0003.7,0022.73,0034.70,0021.51
2023-05-23 14:45:00,,0831.2,5.01,0.00,29.2,27.6,00.0,37.5,30.8,21.9,0003.8,0022.66,0034.55,0021.42
2023-05-23 14:46:00,,0831.2,5.00,0.00,29.2,27.6,00.0,37.5,30.8,22.0,0003.8,0022.60,0034.46,0021.35
2023-05-23 14:47:00,,0831.2,5.00,0.00,29.2,27.6,00.0,37.5,30.8,22.4,0003.8,0022.56,0033.97,0021.29
2023-05-23 14:48:00,,0831.2,5.00,0.00,29.2,27.6,00.0,37.5,30.8,21.8,0003.9,0022.53,0033.55,0021.25
2023-05-23 14:49:00,,0831.2,5.00,0.00,29.2,27.7,00.0,37.5,30.8,21.9,0003.9,0022.55,0033.68,0021.22
2023-05-23 14:50:00,,0831.3,5.01,0.00,29.2,27.7,00.0,37.5,30.9,22.3,0003.9,0022.51,0033.55,0021.19
2023-05-23 14:51:00,,0831.3,4.98,0.00,29.2,27.7,00.0,37.5,30.8,22.3,0003.8,0022.49,0034.01,0021.18
2023-05-23 14:52:00,,0831.3,5.00,0.00,29.3,27.7,00.0,37.5,30.9,22.3,0003.9,0022.52,0033.58,0021.19
2023-05-23 14:53:00,,0831.3,5.01,0.00,29.3,27.7,00.0,37.6,30.9,22.5,0003.8,0022.47,0033.37,0021.17
2023-05-23 14:54:00,,0831.3,5.00,0.00,29.3,27.7,00.0,37.6,30.9,22.4,0003.8,0022.41,0033.20,0021.12
2023-05-23 14:55:00,,0831.3,5.00,0.00,29.3,27.7,00.0,37.6,30.9,22.3,0003.7,0022.32,0032.62,0021.05
2023-05-23 14:56:00,,0831.3,5.00,0.00,29.3,27.7,00.0,37.6,30.9,22.0,0003.7,0022.29,0032.98,0021.02
2023-05-23 14:57:00,,0831.3,5.00,0.00,29.3,27.7,00.0,37.6,30.9,22.1,0003.6,0022.26,0032.84,0021.00
2023-05-23 14:58:00,,0831.3,4.99,0.00,29.3,27.7,00.0,37.6,30.9,21.7,0003.5,0022.19,0032.96,0020.96
2023-05-23 14:59:00,,0831.3,5.00,0.00,29.3,27.7,00.0,37.6,30.9,22.0,0003.5,0022.14,0032.76,0020.92
